Weather History for Kansas City International, MO

Change the Weather History Date:

Saturday, August 3, 2013

  Actual Average Record
Temperature  
Mean Temperature 77 °F 78 °F  
Max Temperature 85 °F 89 °F 108 °F (1918)
Min Temperature 69 °F 68 °F 53 °F (1974)
Degree Days  
Heating Degree Days 0 0  
Month to date heating degree days 0 0  
Since 1 June heating degree days 17 9  
Since 1 July heating degree days 0 0  
Cooling Degree Days 12 13  
Month to date cooling degree days 31 40  
Year to date cooling degree days 779 836  
Since 1 June cooling degree days 674 720  
Growing Degree Days 26 (Base 50)    
Moisture  
Dew Point 67 °F    
Average Humidity 76    
Maximum Humidity 93    
Minimum Humidity 58    
Precipitation  
Precipitation 0.00 in 0.13 in 2.03 in (1985)
Month to date precipitation 0.84 0.37  
Year to date precipitation 21.39 23.88  
Snow  
Snow 0.00 in 0.00 in 0.00 in ()
Month to date snowfall 0.0 0.0  
Since 1 June snowfall 0.0 0.0  
Since 1 July snowfall 0.0 0.0  
Snow Depth 0.00 in    
Sea Level Pressure  
Sea Level Pressure 30.03 in    
Wind  
Wind Speed 9 mph (NE)    
Max Wind Speed 15 mph    
Max Gust Speed 18 mph    
Visibility 10 miles    
Events      
T = Trace of Precipitation, MM = Missing Value Source: NWS Daily Summary

Daily Weather History Graph

Daily Weather History Graph

Search for Another Location

Airport:

Trip Planner

Search our weather history database for the weather conditions in past years. The results will help you decide how hot, cold, wet, or windy it might be!

Date:

Astronomy

Aug. 03, 2013 Rise Set
Actual Time 6:21 AM CDT 8:28 PM CDT
Civil Twilight 5:51 AM CDT 8:58 PM CDT
Nautical Twilight 5:14 AM CDT 9:34 PM CDT
Astronomical Twilight 4:35 AM CDT 10:13 PM CDT
Moon 3:31 AM CDT (8/3) 6:11 PM CDT (8/3)
Length of Visible Light 15h 06m
Length of Day
14h 07m
Waning Crescent, 9% of the Moon is Illuminated
Aug 3
Waning Crescent
Aug 6
New
Aug 14
First Quarter
Aug 20
Full
Aug 28
Last Quarter

Hourly Weather History & Observations

Time (CDT) Temp. Heat Index Dew Point Humidity Pressure Visibility Wind Dir Wind Speed Gust Speed Precip Events Conditions
12:53 AM 75.0 °F - 70.0 °F 84% 29.95 in 10.0 mi ENE 5.8 mph - N/A   Overcast
1:53 AM 73.9 °F - 70.0 °F 87% 29.94 in 10.0 mi ENE 5.8 mph - N/A   Overcast
2:53 AM 73.4 °F - 69.8 °F 88% 29.92 in 10.0 mi NE 11.5 mph - N/A   Overcast
3:53 AM 72.0 °F - 69.1 °F 91% 29.93 in 10.0 mi NNE 6.9 mph - N/A   Overcast
4:14 AM 71.6 °F - 68.0 °F 88% 29.98 in 10.0 mi North 6.9 mph - N/A   Overcast
4:27 AM 71.6 °F - 68.0 °F 88% 29.99 in 10.0 mi NNW 3.5 mph - N/A   Overcast
4:53 AM 71.1 °F - 66.0 °F 84% 29.96 in 10.0 mi NE 9.2 mph - N/A   Overcast
5:06 AM 71.6 °F - 66.2 °F 83% 30.00 in 10.0 mi ENE 6.9 mph - N/A   Overcast
5:53 AM 69.1 °F - 64.9 °F 87% 29.98 in 10.0 mi NE 11.5 mph - N/A   Overcast
6:53 AM 69.1 °F - 64.0 °F 84% 30.01 in 10.0 mi NE 8.1 mph - N/A   Overcast
7:53 AM 69.1 °F - 63.0 °F 81% 30.03 in 10.0 mi ENE 12.7 mph - N/A   Overcast
8:53 AM 71.1 °F - 63.0 °F 75% 30.03 in 10.0 mi East 12.7 mph - N/A   Overcast
9:53 AM 73.9 °F - 64.0 °F 71% 30.06 in 10.0 mi ENE 8.1 mph - N/A   Scattered Clouds
10:53 AM 78.1 °F - 66.0 °F 66% 30.07 in 10.0 mi Variable 6.9 mph - N/A   Mostly Cloudy
11:53 AM 79.0 °F - 68.0 °F 69% 30.06 in 10.0 mi NE 5.8 mph - N/A   Mostly Cloudy
12:53 PM 81.0 °F 84.1 °F 69.1 °F 67% 30.07 in 10.0 mi Variable 5.8 mph - N/A   Overcast
1:53 PM 82.0 °F 85.5 °F 69.1 °F 65% 30.06 in 10.0 mi ENE 8.1 mph - N/A   Overcast
2:53 PM 84.0 °F 88.4 °F 70.0 °F 63% 30.06 in 10.0 mi East 8.1 mph - N/A   Mostly Cloudy
3:53 PM 82.9 °F 86.5 °F 69.1 °F 63% 30.05 in 10.0 mi NE 10.4 mph - N/A   Mostly Cloudy
4:53 PM 82.9 °F 86.5 °F 69.1 °F 63% 30.05 in 10.0 mi NE 10.4 mph - N/A   Mostly Cloudy
5:53 PM 82.9 °F 85.4 °F 66.9 °F 58% 30.05 in 10.0 mi ENE 10.4 mph - N/A   Mostly Cloudy
6:53 PM 82.0 °F 84.5 °F 66.9 °F 60% 30.05 in 10.0 mi ENE 10.4 mph - N/A   Mostly Cloudy
7:53 PM 80.1 °F 81.9 °F 64.9 °F 60% 30.05 in 10.0 mi East 9.2 mph - N/A   Mostly Cloudy
8:53 PM 79.0 °F - 64.9 °F 62% 30.05 in 10.0 mi East 6.9 mph - N/A   Scattered Clouds
9:53 PM 77.0 °F - 66.9 °F 71% 30.09 in 10.0 mi ENE 6.9 mph - N/A   Mostly Cloudy
10:53 PM 77.0 °F - 64.9 °F 66% 30.11 in 10.0 mi ENE 10.4 mph - N/A   Overcast
11:53 PM 75.9 °F - 62.1 °F 62% 30.12 in 10.0 mi ENE 11.5 mph - N/A   Overcast